Location: Bottenau
(48.5138°N, 8.0462°E)
Time: 05:32:21
(UTC+00:00)

Cosmos 1356 - Pass Details

Date: 18 April 2021
Orbit: 439 x 442 km, 81.1° (Epoch: 09 May)

Event Time Altitude Azimuth Distance (km) Brightness Sun altitude
Rises 19:25:04 0° 355° (N) 2,449 7.7 -10.1°
Reaches altitude 10° 19:27:16 10° 5° (N) 1,573 6.5 -10.4°
Maximum altitude 19:30:26 34° 72° (ENE) 746 4.2 -10.9°
Enters shadow 19:32:32 17° 130° (SE) 1,179 4.9 -11.2°
